| time (UTC) | temp F | wind direction | speed MPH | gust MPH | rain 1hr in | rain 24hr in | rain mn in | humidity % | barometer mb |
| 20260509030514 | 59 | 355 | 0.0 | 6.0 | 0.00 | 0.00 | 0.00 | 74 | 1018.4 |
| 20260509030015 | 59 | 0 | 0.0 | 6.0 | 0.00 | 0.00 | 0.00 | 74 | 1018.4 |
| 20260509025514 | 60 | 354 | 0.0 | 6.0 | 0.00 | 0.00 | 0.00 | 74 | 1018.3 |
| 20260509025014 | 60 | 0 | 4.0 | 4.0 | 0.00 | 0.00 | 0.00 | 73 | 1018.4 |
| 20260509024514 | 60 | 0 | 0.0 | 7.0 | 0.00 | 0.00 | 0.00 | 73 | 1018.4 |
| 20260509024014 | 60 | 355 | 0.0 | 7.0 | 0.00 | 0.00 | 0.00 | 73 | 1018.5 |
| 20260509023515 | 60 | 345 | 2.0 | 7.0 | 0.00 | 0.00 | 0.00 | 72 | 1018.5 |
| 20260509023014 | 60 | 0 | 0.0 | 0.0 | 0.00 | 0.00 | 0.00 | 72 | 1018.5 |
| 20260509022514 | 61 | 0 | 0.0 | 0.0 | 0.00 | 0.00 | 0.00 | 72 | 1018.5 |
| 20260509022014 | 61 | 0 | 0.0 | 0.0 | 0.00 | 0.00 | 0.00 | 71 | 1018.6 |
| 20260509021514 | 61 | 0 | 0.0 | 0.0 | 0.00 | 0.00 | 0.00 | 71 | 1018.6 |
| 20260509021014 | 61 | 0 | 0.0 | 0.0 | 0.00 | 0.00 | 0.00 | 70 | 1018.6 |
| 20260509020514 | 62 | 0 | 0.0 | 0.0 | 0.00 | 0.00 | 0.00 | 70 | 1018.6 |
| 20260509020015 | 62 | 0 | 0.0 | 0.0 | 0.00 | 0.00 | 0.00 | 70 | 1018.6 |
| 20260509015514 | 62 | 0 | 0.0 | 0.0 | 0.00 | 0.00 | 0.00 | 69 | 1018.5 |
| 20260509015014 | 62 | 0 | 0.0 | 4.0 | 0.00 | 0.00 | 0.00 | 69 | 1018.5 |
| 20260509014516 | 62 | 0 | 0.0 | 4.0 | 0.00 | 0.00 | 0.00 | 69 | 1018.5 |
| 20260509014015 | 62 | 0 | 0.0 | 4.0 | 0.00 | 0.00 | 0.00 | 69 | 1018.5 |
| 20260509013516 | 63 | 319 | 0.0 | 6.0 | 0.00 | 0.00 | 0.00 | 68 | 1018.5 |
| 20260509013014 | 63 | 341 | 1.0 | 6.0 | 0.00 | 0.00 | 0.00 | 68 | 1018.5 |
| 20260509012514 | 63 | 334 | 0.0 | 6.0 | 0.00 | 0.00 | 0.00 | 68 | 1018.5 |
| 20260509012016 | 63 | 334 | 4.0 | 6.0 | 0.00 | 0.00 | 0.00 | 68 | 1018.5 |
| 20260509011514 | 63 | 0 | 0.0 | 3.0 | 0.00 | 0.00 | 0.00 | 67 | 1018.5 |
| 20260509011014 | 63 | 315 | 0.0 | 3.0 | 0.00 | 0.00 | 0.00 | 67 | 1018.5 |
| 20260509010014 | 63 | 315 | 0.0 | 6.0 | 0.00 | 0.00 | 0.00 | 66 | 1018.6 |
| 20260509005514 | 63 | 338 | 1.0 | 6.0 | 0.00 | 0.00 | 0.00 | 65 | 1018.7 |
| 20260509005014 | 63 | 337 | 0.0 | 4.0 | 0.00 | 0.00 | 0.00 | 64 | 1018.7 |
| 20260509004515 | 64 | 299 | 1.0 | 6.0 | 0.00 | 0.00 | 0.00 | 64 | 1018.7 |
| 20260509004014 | 64 | 305 | 0.0 | 6.0 | 0.00 | 0.00 | 0.00 | 64 | 1018.7 |
| 20260509003514 | 64 | 327 | 2.0 | 6.0 | 0.00 | 0.00 | 0.00 | 64 | 1018.8 |
| 20260509003014 | 64 | 334 | 2.0 | 6.0 | 0.00 | 0.00 | 0.00 | 64 | 1018.8 |
| 20260509002514 | 64 | 282 | 0.0 | 7.0 | 0.00 | 0.00 | 0.00 | 63 | 1018.8 |
| 20260509002014 | 64 | 312 | 0.0 | 7.0 | 0.00 | 0.00 | 0.00 | 63 | 1018.8 |
| 20260509001516 | 65 | 322 | 0.0 | 7.0 | 0.00 | 0.00 | 0.00 | 63 | 1018.8 |
| 20260509001015 | 64 | 331 | 2.0 | 8.0 | 0.00 | 0.00 | 0.00 | 62 | 1018.9 |
| 20260509000515 | 64 | 333 | 2.0 | 8.0 | 0.00 | 0.00 | 0.00 | 63 | 1018.9 |
| 20260509000015 | 64 | 299 | 2.0 | 8.0 | 0.00 | 0.00 | 0.00 | 62 | 1018.9 |
| 20260508235514 | 65 | 245 | 2.0 | 7.0 | 0.00 | 0.00 | 0.00 | 61 | 1018.9 |
| 20260508235014 | 65 | 288 | 2.0 | 7.0 | 0.00 | 0.00 | 0.00 | 61 | 1019.0 |
| 20260508234514 | 66 | 291 | 2.0 | 7.0 | 0.00 | 0.00 | 0.00 | 60 | 1018.9 |
| 20260508234014 | 66 | 287 | 2.0 | 7.0 | 0.00 | 0.00 | 0.00 | 59 | 1019.0 |
| 20260508233515 | 66 | 250 | 1.0 | 7.0 | 0.00 | 0.00 | 0.00 | 60 | 1018.9 |
| 20260508233017 | 66 | 301 | 2.0 | 9.0 | 0.00 | 0.00 | 0.00 | 59 | 1019.0 |
| 20260508232514 | 66 | 331 | 3.0 | 9.0 | 0.00 | 0.00 | 0.00 | 60 | 1019.0 |
| 20260508232014 | 66 | 243 | 4.0 | 9.0 | 0.00 | 0.00 | 0.00 | 59 | 1019.0 |
| 20260508231514 | 66 | 298 | 5.0 | 9.0 | 0.00 | 0.00 | 0.00 | 59 | 1019.0 |
| 20260508231014 | 66 | 333 | 3.0 | 9.0 | 0.00 | 0.00 | 0.00 | 59 | 1019.1 |
| 20260508230515 | 65 | 252 | 1.0 | 9.0 | 0.00 | 0.00 | 0.00 | 59 | 1019.1 |
| 20260508230014 | 66 | 268 | 6.0 | 9.0 | 0.00 | 0.00 | 0.00 | 58 | 1019.2 |
| 20260508225514 | 66 | 280 | 2.0 | 9.0 | 0.00 | 0.00 | 0.00 | 58 | 1019.1 |
| 20260508225015 | 66 | 256 | 3.0 | 9.0 | 0.00 | 0.00 | 0.00 | 58 | 1019.1 |
| 20260508224514 | 66 | 268 | 3.0 | 11.0 | 0.00 | 0.00 | 0.00 | 58 | 1019.0 |
| 20260508224014 | 66 | 285 | 2.0 | 11.0 | 0.00 | 0.00 | 0.00 | 58 | 1019.0 |
| 20260508223514 | 66 | 240 | 5.0 | 11.0 | 0.00 | 0.00 | 0.00 | 56 | 1019.0 |
| 20260508223015 | 66 | 245 | 3.0 | 10.0 | 0.00 | 0.00 | 0.00 | 57 | 1018.9 |
| 20260508222514 | 66 | 256 | 6.0 | 11.0 | 0.00 | 0.00 | 0.00 | 56 | 1019.2 |
| 20260508222014 | 66 | 284 | 6.0 | 11.0 | 0.00 | 0.00 | 0.00 | 56 | 1019.2 |
| 20260508221514 | 66 | 239 | 7.0 | 11.0 | 0.00 | 0.00 | 0.00 | 56 | 1019.2 |
| 20260508221014 | 67 | 296 | 8.0 | 12.0 | 0.00 | 0.00 | 0.00 | 55 | 1019.2 |
| 20260508220514 | 67 | 299 | 7.0 | 12.0 | 0.00 | 0.00 | 0.00 | 57 | 1019.2 |
| 20260508220015 | 67 | 284 | 8.0 | 12.0 | 0.00 | 0.00 | 0.00 | 56 | 1019.2 |
| 20260508215514 | 67 | 292 | 6.0 | 10.0 | 0.00 | 0.00 | 0.00 | 56 | 1019.2 |
| 20260508215014 | 67 | 301 | 6.0 | 10.0 | 0.00 | 0.00 | 0.00 | 55 | 1019.2 |
| 20260508214514 | 67 | 288 | 7.0 | 10.0 | 0.00 | 0.00 | 0.00 | 56 | 1019.1 |
| 20260508214014 | 67 | 310 | 5.0 | 12.0 | 0.00 | 0.00 | 0.00 | 56 | 1019.2 |
| 20260508213514 | 67 | 305 | 3.0 | 12.0 | 0.00 | 0.00 | 0.00 | 56 | 1019.1 |
| 20260508213014 | 67 | 292 | 7.0 | 12.0 | 0.00 | 0.00 | 0.00 | 55 | 1019.2 |
| 20260508212514 | 67 | 238 | 8.0 | 11.0 | 0.00 | 0.00 | 0.00 | 54 | 1019.2 |
| 20260508212014 | 67 | 239 | 7.0 | 12.0 | 0.00 | 0.00 | 0.00 | 55 | 1019.2 |
| 20260508211514 | 67 | 291 | 5.0 | 12.0 | 0.00 | 0.00 | 0.00 | 55 | 1019.2 |
| 20260508211014 | 67 | 296 | 6.0 | 12.0 | 0.00 | 0.00 | 0.00 | 55 | 1019.1 |
| 20260508210514 | 67 | 306 | 8.0 | 14.0 | 0.00 | 0.00 | 0.00 | 55 | 1019.0 |
| 20260508210015 | 67 | 284 | 6.0 | 14.0 | 0.00 | 0.00 | 0.00 | 57 | 1019.0 |
| 20260508205514 | 67 | 295 | 6.0 | 14.0 | 0.00 | 0.00 | 0.00 | 57 | 1019.0 |
| 20260508205014 | 66 | 309 | 8.0 | 12.0 | 0.00 | 0.00 | 0.00 | 58 | 1019.0 |
| 20260508204514 | 66 | 313 | 6.0 | 12.0 | 0.00 | 0.00 | 0.00 | 58 | 1018.9 |
| 20260508204014 | 66 | 296 | 8.0 | 12.0 | 0.00 | 0.00 | 0.00 | 59 | 1019.0 |
| 20260508203514 | 66 | 292 | 8.0 | 12.0 | 0.00 | 0.00 | 0.00 | 59 | 1018.9 |
| 20260508203014 | 65 | 240 | 6.0 | 12.0 | 0.00 | 0.00 | 0.00 | 60 | 1018.9 |
| 20260508202514 | 65 | 281 | 6.0 | 12.0 | 0.00 | 0.00 | 0.00 | 60 | 1018.8 |
| 20260508202014 | 64 | 289 | 6.0 | 11.0 | 0.00 | 0.00 | 0.00 | 61 | 1018.8 |
| 20260508201514 | 64 | 219 | 6.0 | 10.0 | 0.00 | 0.00 | 0.00 | 61 | 1018.8 |
| 20260508201014 | 64 | 198 | 5.0 | 10.0 | 0.00 | 0.00 | 0.00 | 61 | 1018.7 |
| 20260508200514 | 63 | 245 | 5.0 | 10.0 | 0.00 | 0.00 | 0.00 | 62 | 1018.7 |
| 20260508200014 | 63 | 176 | 4.0 | 10.0 | 0.00 | 0.00 | 0.00 | 62 | 1018.7 |
| 20260508195514 | 63 | 218 | 4.0 | 14.0 | 0.00 | 0.00 | 0.00 | 64 | 1018.8 |
| 20260508195014 | 62 | 287 | 6.0 | 14.0 | 0.00 | 0.00 | 0.00 | 63 | 1018.8 |
| 20260508194514 | 62 | 240 | 7.0 | 14.0 | 0.00 | 0.00 | 0.00 | 63 | 1018.8 |
| 20260508194014 | 63 | 289 | 8.0 | 13.0 | 0.00 | 0.00 | 0.00 | 63 | 1018.8 |
| 20260508193514 | 63 | 302 | 9.0 | 11.0 | 0.00 | 0.00 | 0.00 | 63 | 1018.8 |
| 20260508193014 | 62 | 275 | 0.0 | 11.0 | 0.00 | 0.00 | 0.00 | 64 | 1018.7 |
| 20260508192514 | 62 | 292 | 4.0 | 9.0 | 0.00 | 0.00 | 0.00 | 62 | 1018.6 |
| 20260508192014 | 62 | 214 | 3.0 | 11.0 | 0.00 | 0.00 | 0.00 | 64 | 1018.6 |
| 20260508191514 | 61 | 235 | 5.0 | 11.0 | 0.00 | 0.00 | 0.00 | 64 | 1018.7 |
| 20260508191014 | 61 | 280 | 6.0 | 11.0 | 0.00 | 0.00 | 0.00 | 66 | 1018.8 |
| 20260508190515 | 61 | 236 | 8.0 | 11.0 | 0.00 | 0.00 | 0.00 | 65 | 1018.7 |
| 20260508190015 | 62 | 277 | 7.0 | 10.0 | 0.00 | 0.00 | 0.00 | 66 | 1018.7 |
| 20260508185514 | 62 | 282 | 5.0 | 10.0 | 0.00 | 0.00 | 0.00 | 67 | 1018.8 |
| 20260508185015 | 61 | 273 | 5.0 | 11.0 | 0.00 | 0.00 | 0.00 | 67 | 1018.7 |
| 20260508184514 | 61 | 295 | 4.0 | 11.0 | 0.00 | 0.00 | 0.00 | 69 | 1018.7 |
| 20260508184014 | 60 | 312 | 3.0 | 11.0 | 0.00 | 0.00 | 0.00 | 69 | 1018.7 |
| 20260508183514 | 60 | 277 | 5.0 | 10.0 | 0.00 | 0.00 | 0.00 | 69 | 1018.7 |
| 20260508183014 | 59 | 257 | 1.0 | 7.0 | 0.00 | 0.00 | 0.00 | 68 | 1018.6 |
| 20260508182514 | 59 | 240 | 3.0 | 7.0 | 0.00 | 0.00 | 0.00 | 69 | 1018.6 |
| 20260508182014 | 59 | 266 | 1.0 | 7.0 | 0.00 | 0.00 | 0.00 | 71 | 1018.6 |
| 20260508181514 | 58 | 187 | 1.0 | 7.0 | 0.00 | 0.00 | 0.00 | 71 | 1018.5 |
| 20260508181014 | 58 | 214 | 3.0 | 8.0 | 0.00 | 0.00 | 0.00 | 71 | 1018.6 |
| 20260508180514 | 57 | 285 | 4.0 | 8.0 | 0.00 | 0.00 | 0.00 | 72 | 1018.6 |
| 20260508180014 | 57 | 240 | 1.0 | 8.0 | 0.00 | 0.00 | 0.00 | 73 | 1018.6 |
| 20260508175514 | 57 | 189 | 1.0 | 6.0 | 0.00 | 0.00 | 0.00 | 73 | 1018.7 |
| 20260508175014 | 57 | 194 | 0.0 | 6.0 | 0.00 | 0.00 | 0.00 | 74 | 1018.6 |
| 20260508174514 | 57 | 0 | 0.0 | 8.0 | 0.00 | 0.00 | 0.00 | 74 | 1018.5 |
| 20260508174014 | 56 | 203 | 0.0 | 8.0 | 0.00 | 0.00 | 0.00 | 74 | 1018.5 |
| 20260508173514 | 56 | 168 | 0.0 | 8.0 | 0.00 | 0.00 | 0.00 | 74 | 1018.5 |
| 20260508173014 | 56 | 207 | 0.0 | 8.0 | 0.00 | 0.00 | 0.00 | 74 | 1018.5 |
| 20260508172514 | 57 | 0 | 0.0 | 8.0 | 0.00 | 0.00 | 0.00 | 73 | 1018.5 |
| 20260508172014 | 57 | 250 | 0.0 | 8.0 | 0.00 | 0.00 | 0.00 | 73 | 1018.5 |
| 20260508171514 | 57 | 204 | 0.0 | 6.0 | 0.00 | 0.00 | 0.00 | 74 | 1018.5 |
| 20260508171014 | 57 | 233 | 0.0 | 6.0 | 0.00 | 0.00 | 0.00 | 74 | 1018.4 |
| 20260508170514 | 57 | 236 | 0.0 | 6.0 | 0.00 | 0.00 | 0.00 | 76 | 1018.4 |
| 20260508170014 | 57 | 0 | 1.0 | 1.0 | 0.00 | 0.00 | 0.00 | 76 | 1018.3 |
| 20260508165513 | 57 | 0 | 0.0 | 0.0 | 0.00 | 0.00 | 0.00 | 76 | 1018.3 |
| 20260508165014 | 57 | 0 | 0.0 | 3.0 | 0.00 | 0.00 | 0.00 | 76 | 1018.3 |
| 20260508164514 | 56 | 0 | 0.0 | 3.0 | 0.00 | 0.00 | 0.00 | 76 | 1018.2 |
| 20260508164014 | 56 | 324 | 0.0 | 3.0 | 0.00 | 0.00 | 0.00 | 76 | 1018.3 |
| 20260508163514 | 56 | 0 | 0.0 | 0.0 | 0.00 | 0.00 | 0.00 | 76 | 1018.2 |
| 20260508163014 | 56 | 0 | 0.0 | 0.0 | 0.00 | 0.00 | 0.00 | 77 | 1018.2 |
| 20260508162514 | 56 | 0 | 0.0 | 0.0 | 0.00 | 0.00 | 0.00 | 78 | 1018.2 |
| 20260508162014 | 56 | 0 | 0.0 | 0.0 | 0.00 | 0.00 | 0.00 | 78 | 1018.2 |
| 20260508161514 | 55 | 0 | 0.0 | 0.0 | 0.00 | 0.00 | 0.00 | 79 | 1018.1 |
| 20260508161014 | 55 | 0 | 0.0 | 0.0 | 0.00 | 0.00 | 0.00 | 79 | 1018.0 |
| 20260508160514 | 55 | 0 | 0.0 | 0.0 | 0.00 | 0.00 | 0.00 | 79 | 1018.0 |
| 20260508160014 | 55 | 0 | 0.0 | 0.0 | 0.00 | 0.00 | 0.00 | 79 | 1018.0 |
| 20260508155514 | 55 | 0 | 0.0 | 0.0 | 0.00 | 0.00 | 0.00 | 79 | 1018.0 |
| 20260508155014 | 55 | 0 | 0.0 | 0.0 | 0.00 | 0.00 | 0.00 | 79 | 1018.0 |
| 20260508154514 | 55 | 0 | 0.0 | 0.0 | 0.00 | 0.00 | 0.00 | 79 | 1017.9 |
| 20260508154015 | 55 | 0 | 0.0 | 0.0 | 0.00 | 0.00 | 0.00 | 80 | 1017.8 |
| 20260508153514 | 55 | 0 | 0.0 | 0.0 | 0.00 | 0.00 | 0.00 | 80 | 1017.8 |
| 20260508153015 | 55 | 0 | 0.0 | 0.0 | 0.00 | 0.00 | 0.00 | 80 | 1017.8 |
| 20260508152514 | 55 | 0 | 0.0 | 0.0 | 0.00 | 0.00 | 0.00 | 80 | 1017.8 |
| 20260508152014 | 55 | 0 | 0.0 | 0.0 | 0.00 | 0.00 | 0.00 | 81 | 1017.7 |
| 20260508151514 | 55 | 0 | 0.0 | 0.0 | 0.00 | 0.00 | 0.00 | 81 | 1017.6 |
| 20260508151014 | 55 | 0 | 0.0 | 0.0 | 0.00 | 0.00 | 0.00 | 82 | 1017.5 |
| 20260508150514 | 55 | 0 | 0.0 | 0.0 | 0.00 | 0.00 | 0.00 | 82 | 1017.4 |
| 20260508150014 | 54 | 0 | 0.0 | 0.0 | 0.00 | 0.00 | 0.00 | 83 | 1017.3 |
| 20260508145513 | 54 | 0 | 0.0 | 0.0 | 0.00 | 0.00 | 0.00 | 83 | 1017.3 |
| 20260508145014 | 54 | 0 | 0.0 | 0.0 | 0.00 | 0.00 | 0.00 | 84 | 1017.2 |
| 20260508144514 | 54 | 0 | 0.0 | 0.0 | 0.00 | 0.00 | 0.00 | 85 | 1016.8 |
| 20260508144014 | 54 | 0 | 0.0 | 0.0 | 0.00 | 0.00 | 0.00 | 85 | 1016.9 |
| 20260508143514 | 53 | 0 | 0.0 | 0.0 | 0.00 | 0.00 | 0.00 | 86 | 1016.9 |
| 20260508143013 | 53 | 0 | 0.0 | 0.0 | 0.00 | 0.00 | 0.00 | 86 | 1016.7 |
| 20260508142514 | 53 | 0 | 0.0 | 0.0 | 0.00 | 0.00 | 0.00 | 87 | 1016.8 |
| 20260508142014 | 53 | 0 | 0.0 | 0.0 | 0.00 | 0.00 | 0.00 | 88 | 1016.7 |
| 20260508141514 | 52 | 0 | 0.0 | 0.0 | 0.00 | 0.00 | 0.00 | 88 | 1016.5 |
| 20260508141014 | 52 | 0 | 0.0 | 0.0 | 0.00 | 0.00 | 0.00 | 88 | 1016.6 |
| 20260508140514 | 52 | 0 | 0.0 | 0.0 | 0.00 | 0.00 | 0.00 | 88 | 1016.7 |
| 20260508140014 | 52 | 0 | 0.0 | 0.0 | 0.00 | 0.00 | 0.00 | 89 | 1016.7 |
| 20260508135514 | 51 | 0 | 0.0 | 0.0 | 0.00 | 0.00 | 0.00 | 89 | 1016.3 |
| 20260508135014 | 51 | 0 | 0.0 | 0.0 | 0.00 | 0.00 | 0.00 | 89 | 1016.3 |
| 20260508134514 | 51 | 0 | 0.0 | 0.0 | 0.00 | 0.00 | 0.00 | 89 | 1016.3 |
| 20260508134014 | 51 | 0 | 0.0 | 0.0 | 0.00 | 0.00 | 0.00 | 89 | 1016.5 |
| 20260508133514 | 51 | 0 | 0.0 | 0.0 | 0.00 | 0.00 | 0.00 | 89 | 1016.5 |
| 20260508133013 | 51 | 0 | 0.0 | 0.0 | 0.00 | 0.00 | 0.00 | 89 | 1016.5 |
| 20260508132515 | 51 | 0 | 0.0 | 0.0 | 0.00 | 0.00 | 0.00 | 89 | 1016.7 |
| 20260508132014 | 51 | 0 | 0.0 | 0.0 | 0.00 | 0.00 | 0.00 | 89 | 1016.7 |
| 20260508131514 | 52 | 0 | 0.0 | 0.0 | 0.00 | 0.00 | 0.00 | 89 | 1016.8 |
| 20260508131013 | 52 | 0 | 0.0 | 0.0 | 0.00 | 0.00 | 0.00 | 89 | 1016.8 |
| 20260508130514 | 52 | 0 | 0.0 | 0.0 | 0.00 | 0.00 | 0.00 | 89 | 1016.8 |
| 20260508130015 | 52 | 0 | 0.0 | 0.0 | 0.00 | 0.00 | 0.00 | 89 | 1016.8 |
| 20260508125514 | 52 | 0 | 0.0 | 0.0 | 0.00 | 0.00 | 0.00 | 89 | 1016.9 |
| 20260508125014 | 52 | 0 | 0.0 | 0.0 | 0.00 | 0.00 | 0.00 | 89 | 1017.0 |
| 20260508124514 | 52 | 0 | 0.0 | 0.0 | 0.00 | 0.00 | 0.00 | 90 | 1016.9 |
| 20260508124013 | 52 | 0 | 0.0 | 0.0 | 0.00 | 0.00 | 0.00 | 90 | 1016.9 |
| 20260508123514 | 52 | 0 | 0.0 | 0.0 | 0.00 | 0.00 | 0.00 | 90 | 1016.9 |
| 20260508123016 | 52 | 0 | 0.0 | 0.0 | 0.00 | 0.00 | 0.00 | 91 | 1016.8 |
| 20260508122514 | 51 | 0 | 0.0 | 0.0 | 0.00 | 0.00 | 0.00 | 91 | 1016.8 |
| 20260508122014 | 52 | 0 | 0.0 | 0.0 | 0.00 | 0.00 | 0.00 | 91 | 1016.8 |
| 20260508121514 | 51 | 0 | 0.0 | 0.0 | 0.00 | 0.00 | 0.00 | 91 | 1016.7 |
| 20260508121014 | 51 | 0 | 0.0 | 0.0 | 0.00 | 0.00 | 0.00 | 91 | 1016.7 |
| 20260508120514 | 51 | 0 | 0.0 | 0.0 | 0.00 | 0.00 | 0.00 | 92 | 1016.6 |
| 20260508120014 | 51 | 0 | 0.0 | 0.0 | 0.00 | 0.00 | 0.00 | 92 | 1016.7 |
| 20260508115514 | 51 | 0 | 0.0 | 0.0 | 0.00 | 0.00 | 0.00 | 92 | 1016.6 |
| 20260508115014 | 51 | 0 | 0.0 | 0.0 | 0.00 | 0.00 | 0.00 | 92 | 1016.7 |
| 20260508114513 | 51 | 0 | 0.0 | 0.0 | 0.00 | 0.00 | 0.00 | 92 | 1016.6 |
| 20260508114014 | 51 | 0 | 0.0 | 0.0 | 0.00 | 0.00 | 0.00 | 92 | 1016.5 |
| 20260508113514 | 51 | 0 | 0.0 | 0.0 | 0.00 | 0.00 | 0.00 | 92 | 1016.5 |
| 20260508113016 | 51 | 0 | 0.0 | 0.0 | 0.00 | 0.00 | 0.00 | 93 | 1016.4 |
| 20260508112514 | 51 | 0 | 0.0 | 0.0 | 0.00 | 0.00 | 0.00 | 93 | 1016.5 |
| 20260508112014 | 51 | 0 | 0.0 | 0.0 | 0.00 | 0.00 | 0.00 | 93 | 1016.5 |
| 20260508111514 | 50 | 0 | 0.0 | 0.0 | 0.00 | 0.00 | 0.00 | 93 | 1016.3 |
| 20260508111013 | 50 | 0 | 0.0 | 0.0 | 0.00 | 0.00 | 0.00 | 93 | 1016.2 |
| 20260508110514 | 50 | 0 | 0.0 | 0.0 | 0.00 | 0.00 | 0.00 | 93 | 1016.2 |
| 20260508110014 | 50 | 0 | 0.0 | 0.0 | 0.00 | 0.00 | 0.00 | 93 | 1016.1 |
| 20260508105513 | 50 | 0 | 0.0 | 0.0 | 0.00 | 0.00 | 0.00 | 93 | 1016.1 |
| 20260508105015 | 50 | 0 | 0.0 | 0.0 | 0.00 | 0.00 | 0.00 | 93 | 1016.2 |
| 20260508104515 | 50 | 0 | 0.0 | 0.0 | 0.00 | 0.00 | 0.00 | 93 | 1016.4 |
| 20260508104014 | 50 | 0 | 0.0 | 0.0 | 0.00 | 0.00 | 0.00 | 93 | 1016.3 |
| 20260508103514 | 50 | 0 | 0.0 | 0.0 | 0.00 | 0.00 | 0.00 | 93 | 1016.3 |
| 20260508103014 | 50 | 0 | 0.0 | 0.0 | 0.00 | 0.00 | 0.00 | 94 | 1016.3 |
| 20260508102514 | 50 | 0 | 0.0 | 0.0 | 0.00 | 0.00 | 0.00 | 94 | 1016.2 |
| 20260508102016 | 50 | 0 | 0.0 | 0.0 | 0.00 | 0.00 | 0.00 | 94 | 1016.2 |
| 20260508101514 | 50 | 0 | 0.0 | 0.0 | 0.00 | 0.00 | 0.00 | 94 | 1016.1 |
| 20260508101013 | 50 | 0 | 0.0 | 0.0 | 0.00 | 0.00 | 0.00 | 94 | 1016.1 |
| 20260508100516 | 50 | 0 | 0.0 | 0.0 | 0.00 | 0.00 | 0.00 | 94 | 1016.1 |
| 20260508100014 | 50 | 0 | 0.0 | 0.0 | 0.00 | 0.00 | 0.00 | 93 | 1015.9 |
| 20260508095513 | 50 | 0 | 0.0 | 0.0 | 0.00 | 0.00 | 0.00 | 93 | 1015.9 |
| 20260508095013 | 50 | 0 | 0.0 | 0.0 | 0.00 | 0.00 | 0.00 | 93 | 1015.9 |
| 20260508094514 | 50 | 0 | 0.0 | 0.0 | 0.00 | 0.00 | 0.00 | 93 | 1016.0 |
| 20260508094013 | 50 | 0 | 0.0 | 0.0 | 0.00 | 0.00 | 0.00 | 93 | 1015.9 |
| 20260508093513 | 50 | 0 | 0.0 | 0.0 | 0.00 | 0.00 | 0.00 | 93 | 1015.9 |
| 20260508093013 | 50 | 0 | 0.0 | 0.0 | 0.00 | 0.00 | 0.00 | 93 | 1015.9 |
| 20260508092513 | 50 | 0 | 0.0 | 0.0 | 0.00 | 0.00 | 0.00 | 93 | 1015.8 |
| 20260508092013 | 50 | 0 | 0.0 | 0.0 | 0.00 | 0.00 | 0.00 | 93 | 1015.6 |
| 20260508091513 | 50 | 0 | 0.0 | 0.0 | 0.00 | 0.00 | 0.00 | 93 | 1015.7 |
| 20260508091013 | 50 | 0 | 0.0 | 0.0 | 0.00 | 0.00 | 0.00 | 93 | 1015.6 |
| 20260508090514 | 50 | 0 | 0.0 | 0.0 | 0.00 | 0.00 | 0.00 | 93 | 1015.6 |
| 20260508090014 | 50 | 0 | 0.0 | 0.0 | 0.00 | 0.00 | 0.00 | 93 | 1015.5 |
| 20260508085513 | 50 | 0 | 0.0 | 0.0 | 0.00 | 0.00 | 0.00 | 93 | 1015.4 |
| 20260508085013 | 50 | 0 | 0.0 | 0.0 | 0.00 | 0.00 | 0.00 | 93 | 1015.4 |
| 20260508084513 | 50 | 0 | 0.0 | 0.0 | 0.00 | 0.00 | 0.00 | 93 | 1015.3 |
| 20260508084013 | 50 | 0 | 0.0 | 0.0 | 0.00 | 0.00 | 0.00 | 93 | 1015.3 |
| 20260508083513 | 50 | 0 | 0.0 | 0.0 | 0.00 | 0.00 | 0.00 | 92 | 1015.2 |
| 20260508083013 | 50 | 0 | 0.0 | 0.0 | 0.00 | 0.00 | 0.00 | 92 | 1015.2 |
| 20260508082514 | 49 | 0 | 0.0 | 0.0 | 0.00 | 0.00 | 0.00 | 92 | 1015.2 |
| 20260508082013 | 49 | 0 | 0.0 | 0.0 | 0.00 | 0.00 | 0.00 | 93 | 1015.1 |
| 20260508081513 | 49 | 0 | 0.0 | 0.0 | 0.00 | 0.00 | 0.00 | 93 | 1015.0 |
| 20260508081014 | 49 | 0 | 0.0 | 0.0 | 0.00 | 0.00 | 0.00 | 93 | 1015.0 |
| 20260508080513 | 49 | 0 | 0.0 | 0.0 | 0.00 | 0.00 | 0.00 | 92 | 1015.0 |
| 20260508080014 | 49 | 0 | 0.0 | 0.0 | 0.00 | 0.00 | 0.00 | 92 | 1014.9 |
| 20260508075513 | 49 | 0 | 0.0 | 0.0 | 0.00 | 0.00 | 0.00 | 92 | 1015.0 |
| 20260508075014 | 49 | 0 | 0.0 | 0.0 | 0.00 | 0.00 | 0.00 | 92 | 1015.1 |
| 20260508074514 | 49 | 0 | 0.0 | 0.0 | 0.00 | 0.00 | 0.00 | 92 | 1015.1 |
| 20260508074013 | 49 | 0 | 0.0 | 0.0 | 0.00 | 0.00 | 0.00 | 92 | 1015.1 |
| 20260508073513 | 49 | 0 | 0.0 | 0.0 | 0.00 | 0.00 | 0.00 | 92 | 1015.0 |
| 20260508073013 | 49 | 0 | 0.0 | 0.0 | 0.00 | 0.00 | 0.00 | 92 | 1015.0 |
| 20260508072513 | 49 | 0 | 0.0 | 0.0 | 0.00 | 0.00 | 0.00 | 92 | 1015.0 |
| 20260508072030 | 49 | 0 | 0.0 | 0.0 | 0.00 | 0.00 | 0.00 | 92 | 1014.9 |
| 20260508071513 | 49 | 0 | 0.0 | 0.0 | 0.00 | 0.00 | 0.00 | 92 | 1015.0 |
| 20260508071013 | 49 | 0 | 0.0 | 0.0 | 0.00 | 0.00 | 0.00 | 91 | 1015.0 |
| 20260508070514 | 49 | 0 | 0.0 | 0.0 | 0.00 | 0.00 | 0.00 | 91 | 1014.9 |
| 20260508070013 | 49 | 0 | 0.0 | 0.0 | 0.00 | 0.00 | 0.00 | 91 | 1014.9 |
| 20260508065513 | 49 | 0 | 0.0 | 0.0 | 0.00 | 0.00 | 0.00 | 91 | 1014.9 |
| 20260508065013 | 49 | 0 | 0.0 | 0.0 | 0.00 | 0.00 | 0.00 | 91 | 1014.9 |
| 20260508064513 | 49 | 0 | 0.0 | 0.0 | 0.00 | 0.00 | 0.00 | 91 | 1015.0 |
| 20260508064013 | 49 | 0 | 0.0 | 0.0 | 0.00 | 0.00 | 0.00 | 90 | 1014.9 |
| 20260508063513 | 49 | 0 | 0.0 | 0.0 | 0.00 | 0.00 | 0.00 | 90 | 1014.8 |
| 20260508063013 | 49 | 0 | 0.0 | 0.0 | 0.00 | 0.00 | 0.00 | 90 | 1014.8 |
| 20260508062513 | 49 | 0 | 0.0 | 0.0 | 0.00 | 0.00 | 0.00 | 90 | 1014.7 |
| 20260508062014 | 49 | 0 | 0.0 | 0.0 | 0.00 | 0.00 | 0.00 | 89 | 1014.7 |
| 20260508061513 | 49 | 0 | 0.0 | 0.0 | 0.00 | 0.00 | 0.00 | 89 | 1014.7 |
| 20260508061013 | 49 | 0 | 0.0 | 0.0 | 0.00 | 0.00 | 0.00 | 88 | 1014.7 |
| 20260508060514 | 49 | 0 | 0.0 | 0.0 | 0.00 | 0.00 | 0.00 | 88 | 1014.7 |
| 20260508060014 | 50 | 0 | 0.0 | 0.0 | 0.00 | 0.00 | 0.00 | 87 | 1014.7 |
| 20260508055513 | 50 | 0 | 0.0 | 0.0 | 0.00 | 0.00 | 0.00 | 86 | 1014.6 |
| 20260508055013 | 50 | 0 | 0.0 | 0.0 | 0.00 | 0.00 | 0.00 | 85 | 1014.6 |
| 20260508054513 | 51 | 0 | 0.0 | 0.0 | 0.00 | 0.00 | 0.00 | 85 | 1014.6 |
| 20260508054014 | 51 | 0 | 0.0 | 0.0 | 0.00 | 0.00 | 0.00 | 84 | 1014.6 |
| 20260508053513 | 51 | 0 | 0.0 | 0.0 | 0.00 | 0.00 | 0.00 | 83 | 1014.6 |
| 20260508053014 | 52 | 0 | 0.0 | 0.0 | 0.00 | 0.00 | 0.00 | 83 | 1014.5 |
| 20260508052515 | 52 | 0 | 0.0 | 0.0 | 0.00 | 0.00 | 0.00 | 83 | 1014.5 |
| 20260508052014 | 52 | 0 | 0.0 | 0.0 | 0.00 | 0.00 | 0.00 | 83 | 1014.6 |
| 20260508051513 | 52 | 0 | 0.0 | 0.0 | 0.00 | 0.00 | 0.00 | 83 | 1014.6 |
| 20260508051014 | 52 | 0 | 0.0 | 6.0 | 0.00 | 0.00 | 0.00 | 82 | 1014.6 |
| 20260508050513 | 53 | 0 | 0.0 | 6.0 | 0.00 | 0.00 | 0.00 | 82 | 1014.6 |
| 20260508050013 | 53 | 0 | 0.0 | 6.0 | 0.00 | 0.00 | 0.00 | 82 | 1014.6 |
| 20260508045516 | 53 | 1 | 0.0 | 10.0 | 0.00 | 0.00 | 0.00 | 82 | 1014.7 |
| 20260508045015 | 53 | 337 | 0.0 | 10.0 | 0.00 | 0.00 | 0.00 | 82 | 1014.7 |
| 20260508044513 | 53 | 348 | 0.0 | 10.0 | 0.00 | 0.00 | 0.00 | 82 | 1014.7 |
| 20260508044014 | 53 | 336 | 7.0 | 10.0 | 0.00 | 0.00 | 0.00 | 82 | 1014.7 |
| 20260508043513 | 53 | 348 | 7.0 | 8.0 | 0.00 | 0.00 | 0.00 | 82 | 1014.7 |
| 20260508043013 | 53 | 338 | 0.0 | 9.0 | 0.00 | 0.00 | 0.00 | 82 | 1014.6 |
| 20260508042513 | 53 | 334 | 4.0 | 9.0 | 0.00 | 0.00 | 0.00 | 82 | 1014.6 |
| 20260508042014 | 53 | 344 | 1.0 | 9.0 | 0.00 | 0.00 | 0.00 | 81 | 1014.5 |
| 20260508041513 | 53 | 348 | 1.0 | 9.0 | 0.00 | 0.00 | 0.00 | 81 | 1014.5 |
| 20260508041013 | 53 | 336 | 6.0 | 13.0 | 0.00 | 0.00 | 0.00 | 81 | 1014.5 |
| 20260508040513 | 53 | 334 | 6.0 | 13.0 | 0.00 | 0.00 | 0.00 | 81 | 1014.5 |
| 20260508040013 | 54 | 338 | 6.0 | 13.0 | 0.00 | 0.00 | 0.00 | 81 | 1014.5 |
| 20260508035014 | 54 | 343 | 7.0 | 12.0 | 0.00 | 0.00 | 0.00 | 81 | 1014.4 |
| 20260508034513 | 54 | 352 | 7.0 | 15.0 | 0.00 | 0.00 | 0.00 | 80 | 1014.4 |
| 20260508034016 | 54 | 347 | 7.0 | 15.0 | 0.00 | 0.00 | 0.00 | 80 | 1014.3 |
| 20260508033515 | 54 | 345 | 8.0 | 15.0 | 0.00 | 0.00 | 0.00 | 80 | 1014.3 |
| 20260508033016 | 54 | 331 | 8.0 | 16.0 | 0.00 | 0.00 | 0.00 | 79 | 1014.2 |
| 20260508032515 | 54 | 348 | 8.0 | 16.0 | 0.00 | 0.00 | 0.00 | 79 | 1014.2 |
| 20260508032014 | 54 | 336 | 10.0 | 16.0 | 0.00 | 0.00 | 0.00 | 78 | 1014.1 |
| 20260508031513 | 54 | 327 | 10.0 | 17.0 | 0.00 | 0.00 | 0.00 | 78 | 1014.1 |
| 20260508031013 | 54 | 334 | 9.0 | 17.0 | 0.00 | 0.00 | 0.00 | 78 | 1014.1 |